Regional Weather Roundup
Issued by NWS

Home | Current Version | Previous Version | Graphics & Text | Print | Product List | Glossary On
Versions: 1 2 3 4 5 6 7 8 9 10 11 12 13 14 15 16 17 18 19 20 21 22 23 24 25 26 27 28 29 30 31 32 33 34 35 36 37 38 39 40 41 42 43 44 45 46 47 48 49 50
000
ASUS43 KFSD 190902
RWRSD

WEATHER ROUNDUP FOR SOUTH DAKOTA
NATIONAL WEATHER SERVICE SIOUX FALLS SD
300 AM CST THU JAN 19 2017

NOTE: "FAIR" INDICATES FEW OR NO CLOUDS BELOW 12,000 FEET WITH NO
SIGNIFICANT WEATHER AND/OR OBSTRUCTIONS TO VISIBILITY.


SDZ001>005-009-010-012>017-191000-
NORTHWEST AND NORTH CENTRAL SOUTH DAKOTA

CITY           SKY/WX    TMP DP  RH WIND       PRES   REMARKS
BUFFALO          N/A     29  19  66 W3        29.48S
FAITH            N/A     24  20  84 CALM      29.55F
MOBRIDGE       CLOUDY    15  10  80 CALM      29.58R
$$

SDZ012>016-024>037-041>051-057-063-072>074-191000-
SOUTHWEST AND SOUTH CENTRAL SOUTH DAKOTA

CITY           SKY/WX    TMP DP  RH WIND       PRES   REMARKS
RAPID CTY ARPT CLOUDY    28  20  71 NW8       29.55F WCI  20
PIERRE         CLOUDY    15  12  88 CALM      29.59S
CUSTER         CLOUDY    38  11  32 NW5       29.59F
ELLSWORTH AFB  CLOUDY    32  21  64 N5        29.54F WCI  27
PHILIP         CLOUDY    14  11  87 W7        29.58F WCI   4
PINE RIDGE     CLOUDY    35  22  58 W10       29.60F WCI  27
SPEARFISH      FAIR      32  19  59 SW7       29.57R WCI  26
WINNER         FAIR      37  29  72 SW13G22   29.62F
$$

SDZ004>011-016>023-039-040-191000-
NORTHEAST SOUTH DAKOTA

CITY           SKY/WX    TMP DP  RH WIND       PRES   REMARKS
ABERDEEN       FOG       19  15  84 SW5       29.65R VSB 1/4 WCI  12
WATERTOWN      CLOUDY    27  26  96 S9        29.67R FOG     WCI  18
SISSETON         N/A     24  23  96 S3        29.65R
$$

SDZ017-020-022-023-036>040-048>070-191000-
SOUTHEAST SOUTH DAKOTA

CITY           SKY/WX    TMP DP  RH WIND       PRES   REMARKS
SIOUX FALLS    CLEAR     36  34  92 S10       29.75R
HURON          CLOUDY    32  31  96 S14       29.66R WCI  22
CHAMBERLAIN    CLOUDY    32  31  94 S10       29.64S WCI  24
MITCHELL       CLOUDY    32  31  96 SE8       29.70S WCI  25
YANKTON        CLEAR     37  32  81 S10       29.72F
$$

ABBREVIATIONS USED IN REMARKS
   TC - TEMPERATURE IN CELSIUS
  WCI - WIND CHILL INDEX
   HX - HEAT INDEX
  VSB - VISIBILITY





USA.gov is the U.S. government's official web portal to all federal, state and local government web resources and services.